Location: Hopville
(44.8032°N, 123.1329°W)
Time: 04:19:35
(UTC+00:00)

Cosmos 2237 Rocket - Pass Details

Date: 24 January 2021
Orbit: 833 x 851 km, 71.0° (Epoch: 26 February)

Event Time Altitude Azimuth Distance (km) Brightness Sun altitude
Exits shadow 14:34:20 10° 252° (WSW) 2,492 4.1 -11.6°
Reaches altitude 10° 14:34:26 10° 253° (WSW) 2,464 4.1 -11.6°
Maximum altitude 14:39:09 27° 310° (NW) 1,595 3.1 -10.8°
Drops below altitude 10° 14:43:54 10° 6° (N) 2,484 4.5 -10.0°
Sets 14:46:47 0° 19° (NNE) 3,426 5.4 -9.5°
